Flag Weather past 2 weeks in Aleppo, Syria

Now
58 °F

Clear.


Feels Like: 58 °F
Forecast: 44 / 57 °F
Wind: No wind

Location: Iskenderun

Current Time: Nov 24, 2014 at 11:35:36 PM

Latest Report: Nov 24, 2014 at 10:00 PM


Visibility: 13 mi

Pressure: 29.99 "Hg

Humidity: 50%

Dew point: 39 °F

Location of AleppoLocation

Historic Weather in Aleppo — Graph

°F

Aleppo temperature yesterday

Maximum temperature yesterday: 65 °F (at 2:00 PM)
Minimum temperature yesterday: 54 °F (at 6:00 AM)
Average temperature yesterday: 60 °F

Past Weeks' High & Low Weather Summary

 TemperatureHumidityPressure
High77 °F (Nov 10, 2:00 PM)91% (Nov 21, 3:00 PM)30.24 "Hg (Nov 21, 3:00 PM)
Low54 °F (Nov 23, 6:00 AM)16% (Nov 10, 9:00 AM)29.76 "Hg (Nov 22, 4:00 AM)
Average66 °F46%30.00 "Hg
* Reported Nov 9 11:00 PM — Nov 24 10:00 PM, Aleppo, Weather by CustomWeather, © 2014

Note: Actual official high and low records may vary slightly from our data, if they occured in-between our weather recording intervals... More about our weather records

Advertising

Aleppo weather history for previous 24 hours

 ConditionsComfort  
Time TempWeatherWind HumidityBarometerVisibility
10:00 PM
Nov 24
58 °FClear.No wind50%29.99 "Hg12 mi
9:00 PM57 °FClear.No wind53%30.00 "Hg12 mi
8:00 PM58 °FClear.1 mph48%29.99 "Hg12 mi
7:00 PM58 °FClear.1 mph50%29.98 "Hg12 mi
6:00 PM59 °FClear.1 mph50%29.97 "Hg12 mi
5:00 PM61 °FPassing clouds.1 mph45%29.96 "Hg12 mi
4:00 PM63 °FScattered clouds.2 mph43%29.95 "Hg12 mi
3:00 PM65 °FScattered clouds.1 mph37%29.96 "Hg12 mi
2:00 PM65 °FScattered clouds.5 mph42%29.96 "Hg12 mi
1:00 PM65 °FScattered clouds.5 mph40%29.96 "Hg12 mi
12:00 PM64 °FPassing clouds.6 mph40%29.98 "Hg9 mi
11:00 AM64 °FPassing clouds.5 mph39%30.00 "Hg12 mi
10:00 AM62 °FPassing clouds.6 mph49%30.01 "Hg12 mi
9:00 AM60 °FScattered clouds.7 mph55%30.01 "Hg12 mi
8:00 AM60 °FScattered clouds.3 mph52%29.99 "Hg12 mi
7:00 AM56 °FScattered clouds.1 mph48%29.98 "Hg12 mi
6:00 AM57 °FPassing clouds.2 mph46%29.97 "Hg9 mi
5:00 AM56 °FPassing clouds.1 mph49%29.96 "Hg12 mi
4:00 AM56 °FPassing clouds.No wind51%29.95 "Hg12 mi
3:00 AM56 °FPassing clouds.No wind52%29.95 "Hg9 mi
2:00 AM57 °FPassing clouds.No wind50%29.95 "Hg9 mi
1:00 AM58 °FPassing clouds.1 mph48%29.96 "Hg9 mi
12:00 AM58 °FPassing clouds.No wind49%29.96 "Hg9 mi
Weather by CustomWeather, © 2014

See weather overviewHow to use our weather pages